{"data":{"norad_id":48400,"epoch":"2026-05-24T23:02:30.137856Z","epoch_age_seconds":81958,"freshness":"FRESH","line1":"1 48400U 21038AZ  26144.96007104  .00007320  00000+0  24728-3 0  9991","line2":"2 48400  53.1598 338.1290 0001051  90.8930 269.2192 15.31716877279129","mean_motion":15.31716877,"eccentricity":0.0001051,"inclination_deg":53.1598,"raan_deg":338.129,"arg_perigee_deg":90.893,"mean_anomaly_deg":269.2192,"bstar":0.00024728,"rev_number":27912,"period_min":94.012152090428,"perigee_km":469.96987454407,"apogee_km":471.40949791352,"semimajor_km":6848.8266862288,"source":"CELESTRAK","updated_at":"2026-05-25T13:38:16.711539Z"}}